This demonstration page uses our WeatherBlox Daily Observations layout. Learn more.

39.29038, -76.61219

Hourly Observations for October 18, 2020

Temp ( °F °C ) Dew Point ( °F °C ) Humidity (%) Winds ( mph kmh ) Pressure ( in mb ) Visibility ( mi km ) Precip ( " mm )
12:54 am 00:54 Mostly Clear 42 5.6 39 3.9 89 89 Calm 30.42 1030 10 16.0934 0 0
1:54 am 01:54 Mostly Clear 41 5 38 3.3 89 89 Calm 30.42 1030 10 16.0934 0 0
2:54 am 02:54 Clear 41 5 38 3.3 89 89 Calm 30.42 1030 10 16.0934 0 0
3:54 am 03:54 Clear 41 5 38 3.3 89 89 Calm 30.42 1030 10 16.0934 0 0
4:54 am 04:54 Mostly Clear 41 5 38 3.3 89 89 Calm 30.42 1030 10 16.0934 0 0
5:54 am 05:54 Clear 39 3.9 36 2.2 89 89 W 3 6 30.43 1031 10 16.0934 0 0
6:54 am 06:54 Mostly Clear 39 3.9 37 2.8 93 93 Calm 30.43 1031 10 16.0934 0 0
7:54 am 07:54 Partly Cloudy 39 3.9 36 2.2 89 89 Calm 30.43 1031 9 14.48406 0 0
8:54 am 08:54 Partly Cloudy 48 8.9 42 5.6 80 80 Calm 30.43 1031 9 14.48406 0 0
9:54 am 09:54 Partly Cloudy 55 12.8 44 6.7 67 67 E 3 6 30.44 1031 10 16.0934 0 0
10:54 am 10:54 Partly Cloudy 60 15.6 41 5 50 50 ESE 7 11 30.43 1031 10 16.0934 0 0
11:54 am 11:54 Partly Cloudy 63 17.2 41 5 45 45 SE 9 15 30.42 1030 10 16.0934 0 0
12:54 pm 12:54 Mostly Cloudy 64 17.8 42 5.6 45 45 SE 12 19 30.4 1030 10 16.0934 0 0
1:54 pm 13:54 Mostly Cloudy 64 17.8 44 6.7 48 48 ESE 9 15 30.37 1029 10 16.0934 0 0
2:54 pm 14:54 Mostly Cloudy 65 18.3 46 7.8 51 51 S 5 7 30.35 1028 10 16.0934 0 0
3:54 pm 15:54 Mostly Cloudy 64 17.8 47 8.3 54 54 SE 7 11 30.33 1027 10 16.0934 0 0
4:54 pm 16:54 Mostly Cloudy 64 17.8 48 8.9 56 56 SE 7 11 30.32 1027 10 16.0934 0 0
5:54 pm 17:54 Mostly Cloudy 63 17.2 49 9.4 60 60 SE 5 7 30.31 1027 10 16.0934 0 0
6:54 pm 18:54 Partly Cloudy 60 15.6 50 10 70 70 SE 5 7 30.32 1027 10 16.0934 0 0
7:54 pm 19:54 Partly Cloudy 59 15 50 10 72 72 ESE 5 7 30.32 1027 10 16.0934 0 0
8:54 pm 20:54 Partly Cloudy 56 13.3 50 10 81 81 Calm 30.32 1027 10 16.0934 0 0
9:54 pm 21:54 Mostly Cloudy 57 13.9 52 11.1 83 83 Calm 30.33 1027 10 16.0934 0 0
10:54 pm 22:54 Mostly Cloudy 56 13.3 51 10.6 84 84 Calm 30.33 1027 10 16.0934 0 0
11:54 pm 23:54 Mostly Clear 54 12.2 50 10 87 87 Calm 30.32 1027 10 16.0934 0 0

Powered by AerisWeather